Temp
34 34 34 35 36 31 26 24 24 30 37 36 36 36 33 32 32 32 31 30 29 29 28 28 27 26 26 25 24 23 23 22 21 20 19 19 20 20 20 20 19 19 20 18
34 34 36 37 37 31 32 32 31 37 37 36 36 36 35 34 33 33 32 31 30 30 29 28 27 27 26 25 24 23 22 22 21 21 21 20 20 20 20 19 19 19 18 19
34 35 37 37 36 36 37 36 36 36 36 37 36 34 33 32 33 33 33 32 31 30 30 28 27 27 26 25 24 23 23 22 22 21 21 21 19 20 20 19 20 20 20 19
35 36 36 36 36 36 35 37 37 36 35 34 37 34 29 23 27 34 34 33 32 31 30 29 28 27 26 25 24 23 23 22 22 21 20 20 20 20 20 20 20 20 20 20
34 35 35 35 36 36 35 37 36 36 35 35 35 35 32 29 20 25 34 34 33 31 31 30 28 27 27 26 24 23 23 22 21 21 20 21 20 21 20 20 20 20 20 20
35 36 36 36 36 36 36 36 36 36 35 33 35 35 35 32 30 29 27 29 32 33 31 31 29 28 27 27 25 24 23 22 21 22 21 21 21 20 20 19 19 19 18 19
34 34 36 35 34 35 36 35 32 32 32 33 36 36 37 33 34 30 26 26 32 34 31 31 30 29 28 28 26 25 23 23 22 21 21 21 21 20 20 20 19 20 19 19
33 33 35 36 35 34 35 35 33 31 32 34 36 35 36 34 33 35 31 31 35 35 32 31 31 30 29 28 27 26 24 23 22 21 21 21 21 21 19 20 20 20 20 19
32 33 36 36 36 35 34 33 35 34 35 34 35 37 37 32 27 26 38 37 36 36 34 31 31 30 29 28 27 26 25 24 23 21 21 21 20 21 20 20 20 20 20 19
32 31 34 35 35 35 34 35 33 34 31 31 33 34 35 33 30 37 38 38 36 36 35 33 31 31 30 29 28 26 26 25 24 22 21 21 21 21 20 20 20 19 19 19
33 32 32 34 34 33 34 33 33 34 34 32 32 34 38 35 34 35 38 36 36 35 35 34 32 31 30 29 28 26 26 25 24 23 22 22 21 20 20 20 20 19 19 19
32 31 30 32 35 36 35 34 34 33 32 33 33 33 38 37 38 37 36 36 35 34 35 34 33 31 30 29 28 26 25 24 24 23 22 22 20 20 20 20 19 19 19 18
30 30 29 31 32 33 32 33 33 34 35 32 32 33 38 37 37 37 36 36 34 34 34 34 34 32 30 29 28 27 25 24 23 22 22 21 20 20 20 19 19 18 17 17
28 29 29 29 30 31 30 31 32 33 32 33 33 34 35 36 36 35 35 33 33 33 33 33 33 33 31 29 28 27 25 24 23 22 22 21 20 20 20 19 19 18 17 17
29 28 29 30 31 31 31 31 31 31 32 31 32 32 34 35 35 35 34 33 33 32 32 32 32 33 31 30 28 27 25 24 23 23 22 22 21 20 20 19 18 17 17 17
30 28 29 28 30 30 30 31 31 31 32 32 33 33 35 35 35 33 33 32 31 30 30 30 32 32 31 29 28 26 25 24 24 23 23 22 21 20 19 18 17 17 17 17
28 28 27 26 29 29 28 30 31 32 32 32 31 33 33 34 34 33 32 31 30 29 29 29 29 31 31 29 27 26 25 25 24 23 22 21 20 20 19 17 17 17 17 17
28 28 28 27 27 25 30 32 32 31 32 33 33 32 23 29 32 31 30 29 29 28 28 28 28 29 31 30 28 26 24 24 24 23 21 21 20 20 19 17 18 18 18 18
30 28 27 26 27 28 30 31 31 30 30 32 32 23 18 19 23 26 26 25 27 26 27 29 29 29 30 31 28 26 24 23 23 22 20 20 20 19 18 17 19 18 18 17
30 30 28 27 26 25 29 31 32 31 28 30 29 21 19 18 15 22 22 26 24 24 24 24 26 29 29 29 28 26 24 23 22 20 19 19 20 20 17 18 18 18 17 17
28 28 27 27 27 28 30 31 31 27 27 28 27 27 21 21 26 27 26 25 23 22 21 22 24 26 28 28 26 24 23 22 22 19 19 19 18 17 16 16 17 17 16 16
27 26 26 27 26 25 28 29 28 27 28 27 26 25 25 25 25 26 25 25 22 21 20 22 20 21 24 26 26 23 22 21 20 19 18 19 18 17 16 16 16 17 16 16
26 27 26 26 27 28 28 27 27 26 27 26 26 25 24 25 24 24 23 23 24 21 20 19 19 20 21 21 21 21 20 20 20 19 18 18 17 16 15 14 15 15 15 15
26 26 26 25 27 27 27 26 26 25 26 25 26 24 24 24 24 23 23 22 23 22 20 19 18 18 19 18 18 19 19 19 18 18 17 17 16 15 14 14 14 15 15 15
24 24 24 24 25 25 25 25 25 23 23 23 23 23 23 23 23 22 22 22 22 23 21 19 19 17 17 18 18 18 18 18 18 17 17 16 16 14 14 14 14 15 16 15
23 23 23 23 24 23 23 23 23 23 22 22 22 22 22 22 22 22 21 22 21 22 22 20 19 17 18 18 18 17 17 17 17 17 16 16 15 14 14 13 14 14 14 14
Height
1464 1466 1468 1454 1445 1467 1486 1494 1498 1469 1442 1449 1449 1447 1449 1459 1466 1472 1476 1481 1485 1490 1495 1500 1507 1511 1514 1518 1523 1525 1528 1532 1535 1541 1547 1546 1546 1549 1551 1552 1550 1551 1553 1555
1463 1464 1453 1446 1442 1458 1464 1464 1463 1437 1440 1441 1441 1443 1442 1452 1458 1464 1470 1474 1479 1485 1490 1496 1502 1507 1511 1514 1519 1523 1527 1528 1533 1539 1541 1541 1544 1545 1550 1549 1550 1551 1552 1553
1463 1454 1445 1444 1446 1446 1441 1445 1443 1445 1438 1434 1437 1449 1449 1454 1455 1460 1464 1469 1474 1478 1484 1491 1497 1502 1507 1512 1514 1518 1524 1526 1531 1538 1539 1540 1542 1545 1547 1548 1548 1548 1550 1552
1456 1448 1446 1443 1445 1441 1453 1433 1435 1443 1451 1462 1431 1461 1458 1462 1468 1458 1460 1460 1469 1475 1479 1485 1493 1498 1503 1508 1513 1516 1520 1524 1527 1533 1536 1539 1542 1543 1545 1545 1546 1547 1549 1551
1457 1449 1448 1448 1445 1440 1448 1437 1440 1440 1448 1449 1445 1449 1446 1461 1483 1481 1455 1455 1459 1468 1474 1478 1485 1492 1499 1504 1509 1513 1516 1520 1524 1528 1532 1536 1539 1540 1541 1543 1544 1546 1547 1549
1449 1443 1442 1442 1439 1439 1441 1445 1443 1443 1446 1473 1449 1445 1440 1447 1448 1452 1452 1453 1448 1456 1465 1472 1478 1486 1493 1499 1503 1509 1511 1516 1520 1524 1527 1530 1535 1539 1539 1541 1543 1544 1546 1548
1451 1449 1443 1446 1451 1446 1444 1451 1474 1480 1475 1473 1433 1439 1426 1432 1426 1441 1439 1437 1441 1448 1457 1466 1472 1479 1487 1493 1497 1503 1506 1510 1516 1520 1524 1528 1532 1536 1538 1539 1541 1544 1545 1547
1460 1462 1438 1438 1446 1454 1448 1449 1468 1493 1483 1462 1426 1444 1430 1425 1429 1428 1422 1429 1432 1439 1447 1456 1464 1472 1480 1487 1492 1498 1502 1506 1511 1515 1519 1524 1529 1533 1534 1537 1540 1541 1543 1545
1464 1458 1431 1432 1432 1441 1451 1459 1440 1453 1444 1456 1442 1423 1415 1418 1424 1449 1418 1422 1425 1431 1437 1449 1459 1467 1473 1480 1485 1490 1497 1501 1506 1510 1515 1520 1525 1529 1532 1535 1538 1539 1541 1542
1459 1470 1442 1437 1436 1441 1447 1443 1462 1451 1483 1486 1458 1446 1435 1429 1432 1417 1413 1416 1423 1429 1433 1443 1452 1461 1467 1474 1480 1486 1490 1495 1501 1506 1510 1515 1519 1524 1528 1531 1534 1537 1538 1539
1456 1457 1457 1442 1444 1446 1444 1451 1450 1449 1450 1467 1470 1450 1410 1420 1423 1418 1411 1419 1423 1428 1433 1439 1446 1455 1463 1469 1474 1480 1485 1491 1497 1503 1506 1510 1514 1520 1525 1528 1531 1533 1534 1535
1459 1461 1467 1451 1432 1430 1430 1440 1438 1453 1465 1451 1454 1448 1409 1415 1412 1415 1418 1424 1427 1429 1432 1439 1444 1451 1458 1464 1470 1475 1480 1486 1491 1497 1501 1506 1511 1516 1521 1525 1527 1529 1531 1534
1471 1471 1478 1463 1448 1440 1445 1440 1439 1433 1432 1449 1458 1446 1408 1411 1415 1416 1418 1422 1425 1430 1435 1438 1441 1446 1453 1459 1466 1471 1476 1482 1487 1493 1497 1502 1507 1512 1517 1520 1523 1524 1527 1529
1479 1477 1476 1481 1463 1456 1461 1452 1446 1442 1451 1447 1442 1435 1421 1417 1416 1417 1420 1425 1429 1431 1436 1440 1441 1443 1447 1454 1461 1466 1472 1477 1484 1490 1495 1500 1503 1507 1509 1513 1516 1518 1521 1523
1474 1479 1469 1462 1457 1455 1456 1455 1450 1451 1445 1453 1441 1438 1427 1422 1421 1421 1426 1429 1432 1435 1437 1439 1441 1441 1443 1450 1456 1463 1469 1474 1482 1487 1491 1494 1498 1500 1503 1507 1509 1513 1515 1519
1467 1475 1469 1472 1461 1456 1457 1450 1448 1446 1444 1440 1437 1436 1422 1420 1422 1425 1427 1430 1434 1438 1439 1438 1439 1440 1441 1445 1452 1458 1464 1470 1477 1483 1485 1487 1489 1493 1497 1501 1506 1509 1513 1516
1472 1472 1476 1482 1463 1459 1466 1451 1444 1437 1434 1435 1442 1429 1422 1415 1419 1421 1425 1429 1434 1438 1438 1438 1437 1436 1439 1443 1447 1454 1460 1466 1471 1476 1479 1480 1482 1488 1493 1497 1501 1505 1509 1512
1469 1471 1471 1477 1469 1488 1450 1435 1433 1435 1428 1422 1424 1423 1436 1435 1426 1426 1428 1431 1437 1439 1437 1437 1436 1433 1434 1437 1442 1448 1455 1461 1465 1469 1471 1473 1478 1483 1487 1492 1495 1500 1504 1507
1458 1463 1471 1477 1472 1458 1446 1436 1435 1436 1435 1428 1427 1438 1442 1436 1437 1421 1429 1437 1440 1441 1439 1435 1433 1431 1429 1430 1434 1440 1449 1457 1461 1463 1463 1466 1471 1477 1482 1487 1490 1495 1499 1504
1445 1448 1460 1465 1477 1479 1448 1434 1431 1433 1449 1434 1437 1443 1443 1443 1471 1446 1450 1445 1450 1445 1440 1436 1432 1430 1429 1429 1430 1433 1441 1450 1456 1458 1459 1463 1469 1474 1480 1485 1490 1496 1499 1503
1454 1454 1463 1459 1462 1453 1437 1435 1433 1454 1452 1441 1444 1446 1449 1451 1447 1448 1447 1443 1448 1446 1443 1435 1433 1431 1430 1430 1429 1432 1438 1442 1449 1454 1457 1463 1470 1478 1484 1485 1487 1491 1496 1502
1459 1463 1459 1453 1459 1466 1440 1438 1445 1443 1440 1442 1447 1452 1455 1455 1452 1449 1448 1447 1446 1445 1441 1435 1432 1431 1429 1432 1431 1432 1437 1442 1443 1447 1455 1462 1468 1471 1473 1475 1479 1485 1492 1498
1458 1452 1456 1453 1447 1438 1442 1444 1445 1445 1441 1441 1444 1448 1453 1455 1454 1454 1453 1449 1447 1444 1441 1437 1435 1433 1433 1432 1434 1436 1435 1437 1441 1447 1454 1457 1463 1470 1473 1477 1481 1483 1487 1492
1451 1449 1448 1448 1443 1442 1443 1445 1446 1447 1445 1443 1442 1444 1447 1449 1450 1449 1450 1447 1445 1442 1440 1438 1436 1435 1434 1433 1432 1434 1437 1438 1441 1445 1449 1453 1458 1462 1468 1474 1481 1482 1486 1489
1456 1454 1451 1447 1446 1446 1445 1445 1447 1447 1447 1447 1444 1444 1445 1448 1448 1447 1446 1445 1441 1440 1437 1435 1434 1434 1432 1431 1431 1432 1435 1438 1440 1442 1445 1449 1454 1460 1467 1472 1476 1481 1483 1487
1457 1453 1452 1447 1447 1447 1445 1447 1447 1447 1447 1447 1446 1446 1445 1445 1445 1445 1444 1442 1440 1436 1436 1434 1429 1433 1431 1429 1428 1429 1432 1434 1436 1438 1441 1447 1450 1457 1465 1468 1473 1478 1481 1484
Wind_Speed
20 15 15 22 10 21 28 28 32 31 6 5 7 2 21 23 21 21 23 23 23 22 22 23 21 21 19 22 22 18 20 22 19 19 11 10 8 8 8 9 11 8 8 6
17 19 20 21 20 25 19 24 29 4 8 7 8 8 15 20 19 23 23 24 24 23 24 23 23 24 22 22 24 24 21 20 18 12 7 11 11 14 12 13 11 8 6 7
21 21 21 21 18 21 16 13 13 12 8 10 10 3 13 4 11 21 23 23 24 26 27 26 26 26 25 25 26 25 26 22 23 17 18 13 12 14 16 15 10 9 8 8
20 20 23 23 19 16 16 16 15 5 11 11 11 14 8 17 18 15 21 25 24 26 27 30 28 27 27 28 25 25 26 27 25 23 20 17 14 16 15 14 13 13 8 8
17 20 21 17 20 15 18 17 19 20 9 16 19 14 16 18 20 27 15 23 26 28 27 33 31 29 28 28 29 27 28 28 25 26 20 18 16 13 15 14 16 15 14 11
18 25 13 12 15 12 16 20 20 17 14 13 17 18 6 9 15 10 7 34 27 32 31 30 33 31 29 32 29 30 31 29 28 25 26 19 18 15 12 12 10 7 9 12
13 16 19 10 16 18 16 15 12 14 13 14 19 16 16 15 11 16 29 45 32 30 34 30 35 33 33 33 33 30 33 31 29 29 27 25 20 17 17 14 10 12 8 9
14 13 20 16 18 17 18 16 12 15 14 16 19 17 7 11 5 23 52 42 29 27 36 37 32 33 35 32 34 31 34 32 32 32 29 28 24 23 16 13 12 11 14 13
14 17 17 7 10 11 14 16 19 21 19 14 16 21 9 15 20 48 3 20 17 23 29 37 33 33 36 35 37 34 34 33 31 32 30 29 28 24 20 17 16 14 15 16
13 14 14 14 5 10 16 16 15 12 17 17 16 18 14 12 14 11 8 9 19 10 13 36 36 34 35 37 37 37 36 35 30 29 29 28 31 29 21 20 18 16 15 18
13 13 13 13 14 10 13 14 14 16 14 12 11 12 15 12 4 8 6 18 12 10 8 20 37 36 36 38 36 39 37 37 33 29 27 28 29 28 24 18 19 20 21 22
14 9 11 17 15 11 16 16 16 11 17 15 14 15 18 7 4 4 9 9 10 10 5 13 30 35 36 39 37 38 36 38 35 33 30 28 28 25 27 23 21 21 23 22
12 9 10 11 6 18 11 15 19 18 16 14 12 12 13 9 7 11 9 5 15 10 5 7 17 34 37 40 39 41 38 37 33 34 34 29 31 29 27 26 25 24 23 19
5 13 16 14 21 14 10 16 18 19 10 13 14 15 14 15 14 12 10 12 9 6 4 9 10 26 38 38 39 40 40 39 35 34 34 31 30 29 30 29 29 27 23 20
8 13 15 17 17 18 19 17 21 20 18 16 19 18 16 16 16 9 11 10 9 8 6 12 14 16 32 36 37 38 35 36 34 35 36 34 33 35 33 30 31 26 23 19
14 13 13 15 18 19 18 17 19 21 23 23 20 21 17 17 18 7 6 7 11 12 12 15 16 20 25 32 31 33 35 35 35 37 38 37 39 37 34 32 31 28 23 20
16 12 12 15 17 17 15 16 17 18 18 21 18 20 15 5 7 5 5 3 5 10 11 12 19 16 20 26 31 29 34 33 37 38 39 41 44 39 34 34 31 28 23 20
17 15 11 13 14 17 16 14 15 19 19 14 16 14 26 23 10 9 16 13 9 8 11 13 16 20 21 26 27 31 33 33 38 40 42 45 43 39 37 36 32 26 24 23
15 14 12 12 13 18 20 14 13 12 11 15 16 19 28 38 49 22 21 23 12 15 15 15 12 14 18 27 30 34 33 33 38 41 44 46 44 41 40 35 31 28 26 25
8 11 11 11 15 18 17 19 15 8 12 13 17 13 8 27 7 9 25 19 17 16 16 20 16 11 12 12 27 36 37 37 38 39 42 44 42 39 38 34 29 26 26 23
9 9 11 11 14 14 12 16 16 7 4 10 11 14 13 3 8 13 14 11 9 14 17 12 13 16 8 15 21 34 36 40 40 40 40 40 35 32 33 32 29 28 27 22
10 11 12 13 15 18 13 11 10 8 9 11 9 7 7 10 16 14 12 13 9 11 16 11 13 13 7 8 15 28 31 35 40 41 35 35 33 37 38 33 32 30 26 21
12 12 11 14 14 17 16 18 19 23 17 10 12 3 5 10 10 12 17 19 13 11 13 14 12 11 5 3 8 17 26 33 36 35 33 35 37 34 30 32 31 28 27 25
16 21 12 14 16 20 25 23 20 22 21 18 14 6 10 14 15 17 14 19 18 9 8 10 11 10 12 12 12 18 22 26 27 30 34 38 37 34 32 30 28 28 28 25
15 17 15 17 17 24 25 22 17 13 16 17 18 11 11 14 17 17 19 19 20 14 7 8 13 12 11 12 13 17 21 23 25 33 37 38 35 34 31 26 29 27 24 24
21 17 13 14 21 23 22 24 24 22 19 20 21 21 17 17 21 17 21 20 18 22 12 8 10 16 15 13 13 15 17 20 29 37 37 36 37 31 27 25 22 24 19 23
Wind_Direction
243 245 251 260 283 143 165 186 226 253 136 229 319 241 165 174 184 185 186 191 190 196 193 190 195 189 198 180 180 191 187 199 199 205 213 220 215 198 192 200 225 215 237 177
250 248 246 268 277 160 173 231 234 43 15 240 275 291 133 166 190 192 193 189 192 192 190 192 186 193 195 187 190 193 188 198 187 201 202 199 199 200 205 198 223 213 196 190
251 250 251 245 281 278 288 288 304 330 335 288 321 229 194 6 216 202 193 194 196 190 191 188 189 197 195 193 191 197 195 206 211 185 200 218 195 196 207 216 218 198 192 177
250 262 263 275 245 278 287 295 301 354 302 293 282 289 103 157 253 193 204 190 195 197 193 183 190 195 195 194 193 199 205 205 219 185 207 198 194 208 213 223 202 190 190 199
262 246 261 267 271 284 286 286 291 302 278 297 290 287 143 129 108 262 211 202 196 193 199 184 187 193 197 194 196 200 209 211 213 195 206 208 187 212 211 217 221 218 225 226
259 270 298 283 281 294 281 280 289 291 284 276 276 278 199 151 176 143 205 231 220 192 194 192 185 190 195 193 194 198 210 215 214 208 202 212 196 198 211 192 224 216 216 198
246 251 267 263 285 278 275 264 263 256 256 256 258 255 268 152 173 181 193 218 221 192 183 192 184 188 190 192 190 196 207 213 216 216 212 209 201 201 209 201 190 199 197 226
285 246 221 205 227 259 271 257 255 260 260 269 274 272 338 136 13 296 195 209 176 182 181 185 193 188 187 191 189 192 204 213 218 219 218 208 207 201 202 208 201 210 209 226
312 288 307 252 217 216 253 259 279 286 285 274 282 292 206 94 72 296 306 165 166 177 176 182 190 190 189 189 193 194 205 215 218 216 217 210 208 207 204 216 198 203 213 217
295 297 296 308 278 244 272 289 288 269 262 271 286 292 299 145 188 236 194 120 133 147 173 180 185 194 190 188 193 196 208 216 215 209 212 211 211 206 205 208 204 201 214 226
301 291 289 273 251 270 251 225 244 269 280 290 286 258 248 42 78 347 66 67 101 133 176 190 185 190 191 185 191 196 208 214 214 207 209 207 211 212 205 209 207 201 212 225
338 321 300 299 308 271 233 259 271 248 239 261 278 289 301 4 314 110 289 63 85 22 170 201 187 187 189 189 191 190 204 211 216 208 209 205 206 202 201 206 220 219 218 222
349 309 319 296 29 348 354 347 332 283 294 287 282 273 288 341 29 14 356 19 107 97 323 234 208 187 191 192 195 195 199 207 208 197 204 202 201 197 200 207 216 221 220 226
308 277 280 285 307 319 317 304 305 315 289 288 281 294 314 330 355 16 68 75 59 60 357 276 265 199 194 195 195 194 195 205 202 198 199 197 198 195 205 208 214 215 223 218
269 273 277 295 309 308 301 293 287 288 294 296 299 305 305 314 328 48 35 19 22 6 343 301 235 249 196 195 195 193 193 196 200 200 199 197 197 198 207 208 211 209 218 218
278 282 297 292 283 271 270 269 272 282 285 284 280 281 284 285 291 57 2 18 17 351 338 314 295 229 193 192 193 197 194 197 198 202 199 197 199 199 207 202 202 211 217 214
286 287 291 287 294 297 287 281 275 282 258 263 275 279 328 256 286 343 320 54 31 338 328 313 294 265 220 197 198 205 194 197 199 204 198 198 200 201 205 203 208 212 213 212
262 263 269 273 280 274 277 288 308 303 296 287 295 340 23 355 315 56 58 43 4 334 322 307 296 273 240 206 201 200 196 198 200 201 197 201 203 204 207 207 208 208 213 212
232 252 261 268 268 276 271 268 282 342 326 330 340 44 23 13 357 45 42 21 14 344 329 315 289 279 284 207 201 199 197 200 200 194 200 202 205 210 206 206 207 209 210 207
238 233 238 248 265 277 297 309 329 347 295 15 38 72 88 51 349 335 18 331 354 341 331 341 322 288 254 200 199 196 194 194 202 198 202 204 208 214 207 208 206 206 206 205
274 236 255 274 265 263 267 286 312 276 343 2 32 39 115 165 293 336 21 9 349 347 333 339 350 326 252 196 203 194 189 195 204 207 207 208 214 212 207 207 204 204 202 203
269 275 275 271 261 267 14 334 311 356 337 351 359 38 351 321 317 355 357 353 19 1 351 337 339 358 48 185 215 190 190 196 203 208 205 213 210 207 208 202 202 203 201 200
263 257 272 279 285 302 315 325 331 335 331 302 311 320 306 312 311 326 317 327 346 359 358 351 336 314 274 145 156 182 192 204 208 211 208 209 203 204 206 206 207 194 196 194
301 302 298 295 286 288 296 304 311 308 312 314 295 328 321 315 312 309 318 311 319 334 352 349 339 319 292 270 229 216 217 217 216 212 202 204 199 200 200 206 202 196 198 199
292 306 297 294 294 296 290 285 293 318 324 318 336 292 294 307 305 308 310 313 300 311 325 329 338 315 293 278 253 240 233 232 219 202 202 202 197 197 202 204 198 204 211 212
271 273 273 280 297 298 298 299 301 299 296 297 299 301 295 288 292 293 299 300 304 291 300 300 329 308 307 285 261 238 232 229 213 197 198 200 199 196 204 194 198 200 214 204